DELTA 1 DEB, 3416

Orbit data source: Space-Track

DELTA 1 DEB, 3416 is space debris in SSO originally from a launch on Fri, 16 Aug 1968 UTC launched from the Air Force Western Test Range (AFWTR). Debris objects in space refer to the collection of defunct objects orbiting the Earth. Examples of debris include non-operational satellites, rocket bodies, and fragments generated from explosions, collisions, or faulty payload assembly.

Loading next visibility...
Identifier
3416, 1968-069C
Orbit
SSO
Country
Flag of USUS
Related business
Manufacturer
Unknown
Mission
Spacecraft
Bus & Motor
Unknown
Mass
Unknown
Launch date (UTC)
1968-08-16 (58 years ago)
Launch vehicle
Unknown
Launch site
Air Force Western Test Range (AFWTR)
Object type
Payload
Rocket body
Debris
Shape & HBR
Unknown shape, 0.1 m
Radar Cross Section
Small (<0.1 m²)

Expand to show TLE details & history
Last TLE update: 18 hours ago

TLE from 18 hours ago
0 DELTA 1 DEB
1 03416U 68069C   26120.62585455 -.00000041  00000-0  29472-4 0  9998
2 03416 101.7164 254.2131 0118688 244.4167 244.5309 12.67153548668249
Epoch: 2026-04-30T15:01Z
TLE epoch observation values (Epoch: 2026-04-30T15:01:13.833Z)
Latitude
50.84935°
Longitude
5.01914°
Altitude
1,442.053 km
Speed
7.127 km/s
True Right ascension
05h 55m 35s
True Declination
50° 41' 44"
Sunlit
Object was in daylight at epoch
Visualization orbit readout
Latitude
Unknown
Longitude
Unknown
Altitude
Unknown
Speed
Unknown
Apparent Right ascension
Unknown
Apparent Declination
Unknown
Sunlit
N/A
Visualization observer readout
Local Sidereal Time
16:51:01
Azimuth
Unknown
Elevation
Unknown
Doppler factor
Unknown
Orbital elements
Apogee altitude
1,483.29 km
Perigee altitude
1,298.867 km
Semi-major axis
7,769.216 km
Eccentricity
0.01187
Inclination
101.7164°
RAAN
254.2131°
Arg. of periapsis
244.4167°
True anomaly
243.31089°
Mean anomaly
244.5309°
Eccentric anomaly
243.92011°
Mean motion
3.1694 °/min
Orbital period
113.59 mins
BSTAR
0.000029472
Loading maneuver chart data...
Computing Atmospheric mass density...
Loading historical data...
Loading historical data...
Loading historical data...
Loading historical data...
Loading historical data...
Loading historical data...
Loading historical data...

Documentation

Showing up to 5 results
|